| time (UTC) | temp F | wind direction | speed knots | gust knots | rain 1hr in | rain 24hr in | rain mn in | humidity % | barometer mb |
| 20260506004529 | 80 | 138 | 5.2 | 13.0 | 0.00 | 0.00 | 0.00 | 83 | 1006.4 |
| 20260506003105 | 80 | 158 | 7.0 | 15.6 | 0.00 | 0.00 | 0.00 | 83 | 1006.2 |
| 20260506001539 | 80 | 193 | 6.1 | 14.8 | 0.00 | 0.00 | 0.00 | 82 | 1006.2 |
| 20260506000003 | 81 | 205 | 5.2 | 10.4 | 0.00 | 0.00 | 0.00 | 81 | 1006.1 |
| 20260505234547 | 81 | 151 | 5.2 | 13.0 | 0.00 | 0.00 | 0.00 | 80 | 1006.1 |
| 20260505233011 | 81 | 195 | 6.1 | 13.9 | 0.00 | 0.00 | 0.00 | 81 | 1006.1 |
| 20260505231603 | 81 | 185 | 7.0 | 15.6 | 0.00 | 0.00 | 0.00 | 81 | 1006.2 |
| 20260505230047 | 81 | 221 | 6.1 | 12.2 | 0.00 | 0.00 | 0.00 | 80 | 1006.2 |
| 20260505224610 | 81 | 194 | 6.1 | 13.0 | 0.00 | 0.00 | 0.00 | 80 | 1006.1 |
| 20260505223045 | 81 | 163 | 8.7 | 14.8 | 0.00 | 0.00 | 0.00 | 81 | 1006.1 |
| 20260505221519 | 82 | 191 | 6.1 | 12.2 | 0.00 | 0.00 | 0.00 | 80 | 1006.3 |
| 20260505220058 | 82 | 181 | 5.2 | 12.2 | 0.00 | 0.00 | 0.00 | 80 | 1006.3 |
| 20260505214538 | 82 | 181 | 6.1 | 11.3 | 0.00 | 0.00 | 0.00 | 80 | 1006.6 |
| 20260505213011 | 82 | 119 | 7.8 | 13.0 | 0.00 | 0.00 | 0.00 | 79 | 1006.7 |
| 20260505211554 | 82 | 200 | 7.0 | 13.0 | 0.00 | 0.00 | 0.00 | 80 | 1006.7 |
| 20260505210021 | 82 | 126 | 7.8 | 13.0 | 0.00 | 0.00 | 0.00 | 79 | 1006.9 |
| 20260505204602 | 82 | 182 | 8.7 | 14.8 | 0.00 | 0.00 | 0.00 | 79 | 1007.0 |
| 20260505203034 | 82 | 222 | 5.2 | 9.6 | 0.00 | 0.00 | 0.00 | 80 | 1007.2 |
| 20260505201511 | 82 | 212 | 5.2 | 11.3 | 0.00 | 0.00 | 0.00 | 81 | 1007.6 |
| 20260505200049 | 82 | 198 | 7.0 | 12.2 | 0.00 | 0.00 | 0.00 | 80 | 1007.6 |
| 20260505194517 | 82 | 180 | 7.0 | 12.2 | 0.00 | 0.00 | 0.00 | 79 | 1007.8 |
| 20260505193057 | 82 | 215 | 6.1 | 14.8 | 0.00 | 0.00 | 0.00 | 80 | 1007.9 |
| 20260505191533 | 82 | 189 | 4.3 | 10.4 | 0.00 | 0.00 | 0.00 | 81 | 1008.1 |
| 20260505190112 | 81 | 139 | 5.2 | 12.2 | 0.00 | 0.00 | 0.00 | 82 | 1008.2 |
| 20260505184538 | 80 | 196 | 5.2 | 13.0 | 0.00 | 0.00 | 0.00 | 82 | 1008.3 |
| 20260505183005 | 80 | 153 | 4.3 | 7.8 | 0.00 | 0.00 | 0.00 | 82 | 1008.3 |
| 20260505181539 | 80 | 215 | 3.5 | 11.3 | 0.00 | 0.00 | 0.00 | 83 | 1008.5 |
| 20260505180013 | 80 | 216 | 6.1 | 12.2 | 0.00 | 0.00 | 0.00 | 83 | 1008.7 |
| 20260505174551 | 79 | 177 | 5.2 | 10.4 | 0.00 | 0.00 | 0.00 | 84 | 1008.7 |
| 20260505173006 | 79 | 192 | 3.5 | 9.6 | 0.00 | 0.00 | 0.00 | 84 | 1008.9 |
| 20260505171551 | 79 | 142 | 4.3 | 11.3 | 0.00 | 0.00 | 0.00 | 84 | 1008.9 |
| 20260505170024 | 79 | 181 | 5.2 | 11.3 | 0.00 | 0.00 | 0.00 | 84 | 1009.0 |
| 20260505164558 | 79 | 215 | 5.2 | 13.9 | 0.00 | 0.00 | 0.00 | 84 | 1009.0 |
| 20260505163032 | 78 | 234 | 4.3 | 11.3 | 0.00 | 0.00 | 0.00 | 85 | 1009.0 |
| 20260505161505 | 78 | 174 | 5.2 | 12.2 | 0.00 | 0.00 | 0.00 | 85 | 1008.9 |
| 20260505153105 | 78 | 165 | 5.2 | 13.0 | 0.00 | 0.00 | 0.00 | 85 | 1008.7 |
| 20260505151536 | 77 | 124 | 2.6 | 10.4 | 0.00 | 0.00 | 0.00 | 86 | 1008.6 |
| 20260505124528 | 74 | 169 | 3.5 | 8.7 | 0.00 | 0.00 | 0.00 | 90 | 1008.3 |
| 20260505123109 | 73 | 217 | 2.6 | 7.8 | 0.00 | 0.00 | 0.00 | 90 | 1008.3 |
| 20260505121540 | 73 | 150 | 4.3 | 10.4 | 0.00 | 0.00 | 0.00 | 90 | 1007.9 |
| 20260505120015 | 73 | 126 | 5.2 | 10.4 | 0.00 | 0.00 | 0.00 | 90 | 1007.8 |
| 20260505114545 | 73 | 181 | 2.6 | 7.8 | 0.00 | 0.00 | 0.00 | 90 | 1008.3 |
| 20260505113015 | 73 | 196 | 3.5 | 8.7 | 0.00 | 0.00 | 0.00 | 90 | 1007.9 |
| 20260505111552 | 73 | 181 | 3.5 | 8.7 | 0.00 | 0.00 | 0.00 | 89 | 1007.9 |
| 20260505101611 | 73 | 158 | 4.3 | 8.7 | 0.00 | 0.00 | 0.00 | 89 | 1008.0 |
| 20260505100056 | 73 | 182 | 3.5 | 9.6 | 0.00 | 0.00 | 0.00 | 89 | 1008.1 |
| 20260505094508 | 72 | 155 | 3.5 | 9.6 | 0.00 | 0.00 | 0.00 | 89 | 1007.9 |
| 20260505093101 | 72 | 171 | 3.5 | 10.4 | 0.00 | 0.00 | 0.00 | 89 | 1008.1 |
| 20260505091520 | 72 | 189 | 2.6 | 9.6 | 0.00 | 0.00 | 0.00 | 89 | 1008.2 |
| 20260505090108 | 72 | 186 | 2.6 | 7.8 | 0.00 | 0.00 | 0.00 | 89 | 1008.3 |
| 20260505084530 | 72 | 193 | 2.6 | 6.1 | 0.00 | 0.00 | 0.00 | 89 | 1008.3 |
| 20260505083112 | 72 | 195 | 4.3 | 9.6 | 0.00 | 0.00 | 0.00 | 89 | 1008.3 |
| 20260505081538 | 72 | 157 | 3.5 | 11.3 | 0.00 | 0.00 | 0.00 | 88 | 1008.6 |
| 20260505080008 | 72 | 219 | 4.3 | 12.2 | 0.00 | 0.00 | 0.00 | 88 | 1008.6 |
| 20260505074553 | 71 | 153 | 5.2 | 10.4 | 0.00 | 0.00 | 0.00 | 88 | 1008.7 |
| 20260505073033 | 71 | 209 | 3.5 | 9.6 | 0.00 | 0.00 | 0.00 | 88 | 1008.8 |
| 20260505071603 | 71 | 129 | 3.5 | 9.6 | 0.00 | 0.00 | 0.00 | 87 | 1008.9 |
| 20260505070041 | 72 | 169 | 1.7 | 7.8 | 0.00 | 0.00 | 0.00 | 87 | 1008.9 |
| 20260505064511 | 71 | 180 | 5.2 | 12.2 | 0.00 | 0.00 | 0.00 | 87 | 1009.2 |
| 20260505063050 | 71 | 207 | 5.2 | 10.4 | 0.00 | 0.00 | 0.00 | 86 | 1009.6 |
| 20260505061522 | 71 | 195 | 4.3 | 10.4 | 0.00 | 0.00 | 0.00 | 86 | 1009.9 |
| 20260505060056 | 72 | 168 | 2.6 | 7.8 | 0.00 | 0.00 | 0.00 | 85 | 1009.8 |
| 20260505054522 | 72 | 201 | 2.6 | 12.2 | 0.00 | 0.00 | 0.00 | 85 | 1009.9 |
| 20260505053109 | 71 | 186 | 3.5 | 7.8 | 0.00 | 0.00 | 0.00 | 85 | 1010.1 |
| 20260505051541 | 72 | 165 | 4.3 | 11.3 | 0.00 | 0.00 | 0.00 | 84 | 1010.0 |
| 20260505041607 | 72 | 187 | 3.5 | 8.7 | 0.00 | 0.00 | 0.00 | 82 | 1010.1 |
| 20260505040040 | 73 | 141 | 6.1 | 12.2 | 0.00 | 0.00 | 0.00 | 82 | 1010.5 |
| 20260505034513 | 73 | 170 | 4.3 | 13.0 | 0.00 | 0.00 | 0.00 | 81 | 1010.6 |
| 20260505033104 | 73 | 196 | 7.0 | 18.2 | 0.00 | 0.00 | 0.00 | 80 | 1010.6 |
| 20260505031538 | 73 | 271 | 5.2 | 14.8 | 0.00 | 0.00 | 0.00 | 80 | 1010.5 |
| 20260505030004 | 74 | 136 | 4.3 | 17.4 | 0.00 | 0.00 | 0.00 | 79 | 1010.5 |
| 20260505024544 | 73 | 162 | 4.3 | 9.6 | 0.00 | 0.00 | 0.00 | 79 | 1010.4 |
| 20260505023018 | 73 | 150 | 6.1 | 13.0 | 0.00 | 0.00 | 0.00 | 79 | 1010.4 |
| 20260505021556 | 73 | 165 | 5.2 | 11.3 | 0.00 | 0.00 | 0.00 | 79 | 1010.4 |
| 20260505020029 | 74 | 165 | 5.2 | 10.4 | 0.00 | 0.00 | 0.00 | 78 | 1010.3 |
| 20260505014609 | 74 | 123 | 7.0 | 16.5 | 0.00 | 0.00 | 0.00 | 78 | 1010.2 |
| 20260505013033 | 74 | 176 | 4.3 | 11.3 | 0.00 | 0.00 | 0.00 | 77 | 1010.0 |
| 20260505011515 | 75 | 122 | 7.8 | 13.9 | 0.00 | 0.00 | 0.00 | 76 | 1010.1 |
| 20260505010110 | 75 | 148 | 5.2 | 12.2 | 0.00 | 0.00 | 0.00 | 76 | 1009.9 |